Flag for Italy Weather past 2 weeks in Cagliari, Italy

Now
43 °F

Clear.


Feels Like: 39 °F
Forecast: 46 / 67 °F
Wind: 7 mph from Northeast

Location: Cagliari / Elmas

Current Time: Mar 1, 2015 at 4:20:48 AM

Latest Report: Mar 1, 2015 at 3:50 AM


Visibility: 10 mi

Pressure: 30.09 "Hg

Humidity: 93%

Dew point: 41 °F

Location of CagliariLocation

Historic Weather in Cagliari — Graph

°F

Cagliari temperature yesterday

Maximum temperature yesterday: 54 °F (at 12:50 PM)
Minimum temperature yesterday: 41 °F (at 3:50 AM)
Average temperature yesterday: 48 °F

Past Weeks' High & Low Weather Summary

 TemperatureHumidityPressure
High59 °F (Feb 15, 1:20 PM)100% (Feb 14, 2:20 AM)30.45 "Hg (Feb 14, 2:20 AM)
Low37 °F (Feb 14, 6:50 AM)51% (Feb 18, 3:50 PM)29.39 "Hg (Feb 22, 4:50 AM)
Average51 °F85%29.92 "Hg
* Reported Feb 14 2:20 AM — Mar 1 2:50 AM, Cagliari, Weather by CustomWeather, © 2015

Note: Actual official high and low records may vary slightly from our data, if they occured in-between our weather recording intervals... More about our weather records

Advertising

Cagliari weather history for previous 24 hours

 ConditionsComfort  
Time TempWeatherWind HumidityBarometerVisibility
2:50 AM
Sun, Mar 1
43 °FClear.8 mph93%30.12 "Hg10 mi
2:20 AM43 °FPassing clouds.3 mph93%30.12 "HgN/A
1:50 AM43 °FPassing clouds.7 mph93%30.12 "HgN/A
1:20 AM43 °FPassing clouds.8 mph93%30.12 "HgN/A
12:50 AM41 °FPassing clouds.6 mph93%30.12 "HgN/A
12:20 AM43 °FPassing clouds.6 mph93%30.12 "HgN/A
11:50 PM
Sat, Feb 28
43 °FPassing clouds.6 mph93%30.09 "HgN/A
11:20 PM43 °FPassing clouds.7 mph93%30.12 "HgN/A
10:50 PM45 °FPassing clouds.7 mph87%30.12 "HgN/A
9:50 PM46 °FPassing clouds.7 mph82%30.12 "HgN/A
9:20 PM48 °FPassing clouds.9 mph76%30.09 "HgN/A
8:50 PM48 °FPassing clouds.8 mph82%30.09 "HgN/A
8:20 PM48 °FPassing clouds.8 mph82%30.09 "HgN/A
7:50 PM48 °FClear.9 mph82%30.09 "Hg10 mi
7:20 PM48 °FClear.9 mph82%30.09 "Hg10 mi
6:50 PM48 °FClear.10 mph76%30.07 "Hg10 mi
6:20 PM50 °FPassing clouds.12 mph71%30.07 "HgN/A
5:50 PM50 °FPassing clouds.12 mph71%30.07 "HgN/A
5:20 PM52 °FScattered clouds.14 mph62%30.04 "HgN/A
4:50 PM54 °FScattered clouds.14 mph63%30.04 "HgN/A
4:20 PM54 °FScattered clouds.14 mph58%30.04 "HgN/A
3:50 PM52 °FScattered clouds.14 mph62%30.04 "HgN/A
2:50 PM54 °FPassing clouds.13 mph63%30.04 "HgN/A
2:20 PM52 °FPassing clouds.14 mph67%30.04 "HgN/A
1:50 PM54 °FPassing clouds.12 mph67%30.07 "HgN/A
1:20 PM54 °FPassing clouds.13 mph67%30.07 "HgN/A
12:50 PM54 °FPassing clouds.12 mph72%30.07 "HgN/A
12:20 PM52 °FPassing clouds.10 mph77%30.07 "HgN/A
11:50 AM52 °FPassing clouds.12 mph77%30.07 "HgN/A
11:20 AM52 °FPassing clouds.10 mph77%30.07 "HgN/A
10:50 AM52 °FPassing clouds.8 mph82%30.07 "HgN/A
10:20 AM50 °FPassing clouds.9 mph94%30.07 "HgN/A
9:50 AM50 °FPassing clouds.8 mph94%30.04 "HgN/A
9:20 AM48 °FPassing clouds.7 mph94%30.04 "HgN/A
8:50 AM46 °FPassing clouds.6 mph100%30.04 "HgN/A
8:20 AM46 °FPassing clouds.5 mph100%30.04 "HgN/A
7:50 AM45 °FPassing clouds.9 mph100%30.01 "HgN/A
7:20 AM45 °FPassing clouds.7 mph93%30.01 "HgN/A
6:50 AM45 °FPassing clouds.7 mph93%29.98 "HgN/A
6:20 AM45 °FPassing clouds.8 mph93%29.98 "HgN/A
5:50 AM43 °FClear.7 mph100%29.95 "Hg10 mi
5:20 AM43 °FClear.6 mph100%29.95 "Hg10 mi
4:50 AM41 °FClear.7 mph100%29.95 "Hg10 mi
4:20 AM41 °FClear.7 mph93%29.95 "Hg10 mi
Weather by CustomWeather, © 2015

See weather overviewHow to use our weather pages